Hourly Data Report for October 05, 2017

All times are specified in Local Standard Time (LST). Add 1 hour to adjust for Daylight Saving Time where and when it is observed.

PEMBERTON AIRPORT CS
BRITISH COLUMBIA

50°18'20.326" N
122°44'02.720" W
204.30 m
1086082
71777
WGP

Download Data

Hourly Data (October 2017)
Hourly Data Report for October 5, 2017
Temp Definition
°C
Dew Point Temp Definition
°C
Rel Hum Definition
%
Wind Dir Definition
10's deg

Wind Spd Definition
km/h
Visibility Definition
km
Stn Press Definition
kPa
Hmdx Definition


Wind Chill Definition


Weather Definition


TIME
00:00 2.6 2.1 97 LegendMM LegendMM   99.84     LegendNANA
01:00 2.1 1.6 97 LegendMM LegendMM   99.86     LegendNANA
02:00 1.6 1.2 97 LegendMM LegendMM   99.87     LegendNANA
03:00 1.2 0.8 98 LegendMM LegendMM   99.89     LegendNANA
04:00 0.7 0.4 98 LegendMM LegendMM   99.92     LegendNANA
05:00 0.3 0.0 98 LegendMM LegendMM   99.92     LegendNANA
06:00 0.0 -0.3 98 LegendMM LegendMM   99.94     LegendNANA
07:00 0.0 -0.3 98 LegendMM LegendMM   99.98     LegendNANA
08:00 1.6 1.4 98 LegendMM LegendMM   99.98     LegendNANA
09:00 5.2 3.6 89 LegendMM LegendMM   99.94     LegendNANA
10:00 9.5 4.5 71 LegendMM LegendMM   99.87     LegendNANA
11:00 12.2 3.4 55 LegendMM LegendMM   99.78     LegendNANA
12:00 15.8 2.8 42 LegendMM LegendMM   99.66     LegendNANA
13:00 16.6 2.1 38 LegendMM LegendMM   99.56     LegendNANA
14:00 18.1 1.6 33 LegendMM LegendMM   99.46     LegendNANA
15:00 18.7 2.8 35 LegendMM LegendMM   99.38     LegendNANA
16:00 18.5 4.5 39 LegendMM LegendMM   99.31     LegendNANA
17:00 13.7 7.0 64 LegendMM LegendMM   99.30     LegendNANA
18:00 9.4 6.3 81 LegendMM LegendMM   99.34     LegendNANA
19:00 7.3 5.6 89 LegendMM LegendMM   99.37     LegendNANA
20:00 5.9 4.7 92 LegendMM LegendMM   99.39     LegendNANA
21:00 5.4 4.5 94 LegendMM LegendMM   99.38     LegendNANA
22:00 4.3 3.4 94 LegendMM LegendMM   99.42     LegendNANA
23:00 3.7 3.1 96 LegendMM LegendMM   99.45     LegendNANA

Notes on Data Quality.

Legend

  • E = Estimated
  • M = Missing
  • NA = Not Available
  • ‡ = Partner data that is not subject to review by the National Climate Archives
Date modified: